EW1931 Weather Reports


Display with metric or nautical units.
time (UTC)temp
F
wind
direction
speed
MPH
gust
MPH
rain 1hr
in
rain 24hr
in
rain mn
in
humidity
%
barometer
mb
20260504050003 55 35 21.0 33.0 0.00 0.00 0.00 38 923.0
20260504044545 55 64 23.0 37.0 0.00 0.00 0.00 37 922.4
20260504043043 56 28 19.0 29.0 0.00 0.00 0.00 41 921.9
20260504041525 58 23 11.0 16.0 0.00 0.00 0.00 39 921.6
20260504040039 58 35 10.0 16.0 0.00 0.00 0.00 38 921.3
20260504034507 58 38 11.0 15.0 0.00 0.00 0.00 37 921.0
20260504033007 59 28 13.0 19.0 0.00 0.00 0.00 36 920.7
20260504031555 60 5 14.0 18.0 0.00 0.00 0.00 35 920.6
20260504030049 60 28 12.0 16.0 0.00 0.00 0.00 33 920.5
20260504024531 62 52 8.0 13.0 0.00 0.00 0.00 30 920.4
20260504023031 63 15 13.0 18.0 0.00 0.00 0.00 27 920.5
20260504021512 65 355 6.0 10.0 0.00 0.00 0.00 24 920.3
20260504020013 68 355 9.0 16.0 0.00 0.00 0.00 20 920.4
20260504014604 70 344 13.0 19.0 0.00 0.00 0.00 19 920.4
20260504013059 71 345 12.0 19.0 0.00 0.00 0.00 19 920.4
20260504011535 72 339 14.0 23.0 0.00 0.00 0.00 19 920.4
20260504010034 73 350 14.0 20.0 0.00 0.00 0.00 19 920.4
20260504004515 73 355 15.0 23.0 0.00 0.00 0.00 18 920.6
20260504003014 74 339 16.0 24.0 0.00 0.00 0.00 18 920.7
20260504001606 74 336 16.0 25.0 0.00 0.00 0.00 18 920.9
20260504000120 74 314 13.0 24.0 0.00 0.00 0.00 18 920.9
20260503234537 75 350 10.0 27.0 0.00 0.00 0.00 18 920.8
20260503233040 74 306 17.0 24.0 0.00 0.00 0.00 18 920.9
20260503231517 75 327 18.0 27.0 0.00 0.00 0.00 18 921.0
20260503230016 75 329 14.0 22.0 0.00 0.00 0.00 18 920.9
20260503224557 75 325 17.0 22.0 0.00 0.00 0.00 18 921.0
20260503223055 75 338 18.0 26.0 0.00 0.00 0.00 19 921.1
20260503221536 74 332 9.0 17.0 0.00 0.00 0.00 19 921.3
20260503220034 74 317 9.0 23.0 0.00 0.00 0.00 19 921.5
20260503214520 74 332 14.0 25.0 0.00 0.00 0.00 19 921.7
20260503213021 74 302 16.0 23.0 0.00 0.00 0.00 18 921.7
20260503211516 74 309 13.0 18.0 0.00 0.00 0.00 17 922.1
20260503210015 73 334 13.0 19.0 0.00 0.00 0.00 17 922.3
20260503204519 74 300 18.0 30.0 0.00 0.00 0.00 16 922.2
20260503203014 73 297 17.0 24.0 0.00 0.00 0.00 17 922.4
20260503201510 73 305 12.0 25.0 0.00 0.00 0.00 18 922.6
20260503200009 73 315 12.0 29.0 0.00 0.00 0.00 18 922.6
20260503194548 72 288 15.0 22.0 0.00 0.00 0.00 19 922.9
20260503193049 72 278 14.0 19.0 0.00 0.00 0.00 19 923.0
20260503190024 72 299 15.0 22.0 0.00 0.00 0.00 21 923.3
20260503184506 72 252 9.0 22.0 0.00 0.00 0.00 21 923.5
20260503183002 72 205 13.0 22.0 0.00 0.00 0.00 22 923.6
20260503181603 72 261 19.0 24.0 0.00 0.00 0.00 22 923.8
20260503180041 71 269 11.0 23.0 0.00 0.00 0.00 25 924.0
20260503174528 71 283 10.0 18.0 0.00 0.00 0.00 25 924.0
20260503173024 70 273 11.0 19.0 0.00 0.00 0.00 27 924.0
20260503171559 68 252 9.0 13.0 0.00 0.00 0.00 33 924.3
20260503100107 46 259 11.0 14.0 0.00 0.00 0.00 73 926.3
20260503081511 44 286 9.0 10.0 0.00 0.00 0.00 70 926.9
20260503071535 46 288 8.0 9.0 0.00 0.00 0.00 67 927.2